Coeur d'Alene Lake Weather Center

Moon Phase Calendar



Coeur d'Alene Lake Water Level
Online Cameras

 


      

Current Conditions in Mica
4/19/2024 11:42:38 AM

49°F
Feels Like 48
Clear
Humidity
41%
Pressure
30.24"
Wind
4 mph (E)
Dew Point
27°F
UV Index
4/10 (Moderate)
Visibility
6 mi

Hourly Forecast

Date & Time Fri, Apr 19
11:00 AM
Fri, Apr 19
12:00 PM
Fri, Apr 19
1:00 PM
Fri, Apr 19
2:00 PM
Fri, Apr 19
3:00 PM
Fri, Apr 19
4:00 PM
Fri, Apr 19
5:00 PM
Fri, Apr 19
6:00 PM
Fri, Apr 19
7:00 PM
Fri, Apr 19
8:00 PM
Fri, Apr 19
9:00 PM
Fri, Apr 19
10:00 PM
Fri, Apr 19
11:00 PM
Sat, Apr 20
12:00 AM
Sat, Apr 20
1:00 AM
Sat, Apr 20
2:00 AM
Sat, Apr 20
3:00 AM
Sat, Apr 20
4:00 AM
Sat, Apr 20
5:00 AM
Sat, Apr 20
6:00 AM
Sat, Apr 20
7:00 AM
Sat, Apr 20
8:00 AM
Sat, Apr 20
9:00 AM
Sat, Apr 20
10:00 AM
Sat, Apr 20
11:00 AM
Sat, Apr 20
12:00 PM
Sat, Apr 20
1:00 PM
Sat, Apr 20
2:00 PM
Sat, Apr 20
3:00 PM
Sat, Apr 20
4:00 PM
Sat, Apr 20
5:00 PM
Sat, Apr 20
6:00 PM
Sat, Apr 20
7:00 PM
Sat, Apr 20
8:00 PM
Sat, Apr 20
9:00 PM
Sat, Apr 20
10:00 PM
Sat, Apr 20
11:00 PM
Sun, Apr 21
12:00 AM
Sun, Apr 21
1:00 AM
Sun, Apr 21
2:00 AM
Sun, Apr 21
3:00 AM
Sun, Apr 21
4:00 AM
Sun, Apr 21
5:00 AM
Sun, Apr 21
6:00 AM
Sun, Apr 21
7:00 AM
Sun, Apr 21
8:00 AM
Sun, Apr 21
9:00 AM
Sun, Apr 21
10:00 AM
Condition
Clear

Clear

Clear

Clear

Clouds

Clouds

Clouds

Clouds

Clouds

Clouds

Clouds

Clouds

Clouds

Clear

Clear

Clear

Clear

Clear

Clear

Clear

Clouds

Clouds

Clouds

Clouds

Clouds

Clear

Clear

Clear

Clear

Clouds

Clouds

Clouds

Clouds

Clouds

Clouds

Clouds

Rain

Rain

Rain

Clouds

Clouds

Clouds

Clouds

Clouds

Clouds

Clouds

Clouds

Clouds
Temperature 49°F49°F50°F52°F53°F55°F55°F53°F48°F43°F39°F36°F34°F32°F30°F29°F28°F28°F27°F27°F32°F38°F44°F49°F54°F58°F62°F65°F66°F64°F63°F61°F54°F48°F46°F46°F47°F48°F45°F44°F42°F38°F36°F36°F37°F40°F43°F44°F
Feels Like 45°F45°F47°F48°F50°F51°F52°F50°F44°F38°F34°F31°F29°F27°F25°F23°F22°F22°F21°F21°F27°F35°F41°F47°F50°F55°F59°F62°F63°F62°F60°F59°F52°F48°F46°F46°F45°F43°F40°F37°F35°F31°F28°F29°F30°F34°F36°F37°F
Cloudiness 0%0%1%1%16%33%45%83%90%85%66%53%44%0%0%0%0%0%0%0%11%30%41%49%42%6%6%8%6%15%21%100%100%69%72%73%78%100%100%100%100%85%87%99%98%96%87%88%
Visibility 6 mi6 mi6 mi6 mi6 mi6 mi6 mi6 mi6 mi6 mi6 mi6 mi6 mi6 mi6 mi6 mi6 mi6 mi6 mi6 mi6 mi6 mi6 mi6 mi6 mi6 mi6 mi6 mi6 mi6 mi6 mi6 mi6 mi6 mi6 mi6 mi6 mi6 mi6 mi6 mi6 mi6 mi6 mi6 mi6 mi6 mi6 mi6 mi
Precipitation 0%0%0%0%0%0%0%0%0%0%0%0%0%0%0%0%0%0%0%0%0%0%0%0%0%0%0%0%0%0%0%0%0%0%0%0%20%94%100%80%80%80%80%0%0%0%0%0%
Humidity 39%41%38%35%30%27%25%32%38%40%47%53%56%61%66%69%71%72%73%72%61%47%39%35%33%31%30%29%29%32%34%46%58%66%69%71%76%79%92%91%87%81%80%84%81%72%61%56%
Dew Point 26°F27°F26°F26°F24°F23°F19°F24°F23°F20°F19°F19°F19°F19°F19°F19°F19°F19°F19°F18°F19°F19°F20°F22°F24°F26°F29°F31°F32°F33°F33°F39°F39°F36°F36°F36°F39°F41°F41°F40°F37°F32°F30°F30°F31°F31°F29°F28°F
Pressure 30.24"30.24"30.24"30.21"30.18"30.18"30.12"30.12"30.15"30.18"30.24"30.24"30.24"30.27"30.27"30.27"30.27"30.3"30.3"30.3"30.27"30.24"30.21"30.18"30.12"30.09"30.06"30.03"29.97"29.97"29.94"29.94"29.91"29.91"29.94"29.94"29.97"30"30.06"30.06"30.09"30.15"30.18"30.21"30.21"30.24"30.21"30.21"
Wind Speed 9.3 mph9.8 mph9.2 mph8.7 mph8.8 mph9.1 mph9 mph8.1 mph9.7 mph9.2 mph7 mph5.7 mph5.6 mph5.7 mph5.6 mph5.5 mph5.4 mph5.3 mph5.4 mph5.3 mph4.9 mph5 mph5.6 mph5.6 mph5.1 mph4.1 mph3 mph1.8 mph2.7 mph6 mph5.3 mph3.2 mph1.2 mph0.5 mph1.7 mph2.8 mph5.3 mph10.2 mph8.8 mph14.8 mph12.9 mph11.6 mph11.7 mph9.3 mph9 mph9.8 mph13.1 mph13.6 mph
Wind
Direction
62°
ENE
65°
ENE
66°
ENE
66°
ENE
64°
ENE
60°
ENE
60°
ENE
52°
NE
46°
NE
45°
NE
44°
NE
46°
NE
47°
NE
45°
NE
45°
NE
48°
NE
50°
NE
52°
NE
55°
NE
54°
NE
54°
NE
53°
NE
51°
NE
52°
NE
57°
ENE
65°
ENE
80°
E
98°
E
209°
SSW
223°
SW
219°
SW
244°
WSW
270°
W
118°
ESE
134°
SE
219°
SW
228°
SW
241°
WSW
240°
WSW
224°
SW
221°
SW
224°
SW
222°
SW
218°
SW
219°
SW
226°
SW
225°
SW
229°
SW

Daily Forecast

Date High Low Precip. Humidity
Today
Apr 19

Clear
55 °F
27 °F
0%
41%
Saturday
Apr 20

Rain
66 °F
27 °F
20%
31%
Sunday
Apr 21

Rain
53 °F
35 °F
100%
53%
Monday
Apr 22

Clear
59 °F
30 °F
0%
36%
Tuesday
Apr 23

Clouds
70 °F
37 °F
0%
32%
Wednesday
Apr 24

Rain
57 °F
39 °F
100%
53%
Thursday
Apr 25

Clouds
57 °F
37 °F
0%
50%
Friday
Apr 26

Rain
46 °F
39 °F
100%
95%
Saturday
Apr 27

Rain
52 °F
36 °F
100%
95%
Sunday
Apr 28

Rain
52 °F
38 °F
100%
91%
Monday
Apr 29

Rain
48 °F
32 °F
38%
55%
Tuesday
Apr 30

Snow
54 °F
31 °F
20%
47%
Wednesday
May 1

Clouds
67 °F
31 °F
0%
27%
Thursday
May 2

Clouds
71 °F
39 °F
0%
29%
Friday
May 3

Clouds
75 °F
43 °F
0%
43%
Saturday
May 4

Clouds
68 °F
47 °F
0%
50%

Temperature 8-14 Day Outlook



Precipitation 8-14 Day Outlook




Quick Links
Coeur d'Alene Lake News
Coeur d'Alene Lake Photos
Coeur d'Alene Lake Videos




About Us
Contact Us
Site Map
Search Site
Advertise With Us
   
CoeurDAlene.USLakes.info
THE COEUR D'ALENE LAKE WEBSITE

Copyright 2024, Lakes Online
Privacy    |    Legal